Location: La Pernelle
(49.6188°N, 1.2999°W)
Time: 13:28:47
(UTC+00:00)

ATLAS CENTAUR R/B - Pass Details

Date: 12 June 2021
Orbit: 472 x 671 km, 64.6° (Epoch: 13 June)

Event Time Altitude Azimuth Distance (km) Brightness Sun altitude
Rises 21:27:26 0° 323° (NW) 2,715 7.3 -9.2°
Reaches altitude 10° 21:30:04 10° 341° (NNW) 1,860 5.4 -9.4°
Maximum altitude 21:33:13 20° 30° (NNE) 1,368 3.6 -9.7°
Drops below altitude 10° 21:36:29 10° 78° (ENE) 1,949 3.9 -10.0°
Enters shadow 21:39:06 - 94° (E) 2,810 4.6 -10.3°
